sat.trackr.live / text

‹ back to catalog

BNU-1 (JINGSHI 1)

NORAD 44529 · 2019-059B

PAYLOAD ACTIVE UNKNOWN

§ Identity

Operator
Country
PRC
Launch date
2019-09-12
Launch site
TAISC
Launch vehicle
Mass (kg)
RCS (m²)

External: N2YO · Heavens-Above · Gunter

§ Orbital elements

Epoch: 2026-09-20T03:19:54.296832Z

Period
99.42 min
Inclination
98.6192°
Eccentricity
0.0014426
Mean motion
14.48446819 rev/d
Perigee alt
720.5 km
Apogee alt
741.0 km
Semi-major
7,108.9 km
B*
7.2010e-5
RAAN
34.0526°
Arg perigee
86.5875°
Mean anomaly
273.6968°
Rev number
37,073

§ Raw data

BNU-1 (JINGSHI 1)1 44529U 19059B   26263.13882288  .00000224  00000+0  72010-4 0  99982 44529  98.6192  34.0526 0014426  86.5875 273.6968 14.48446819370737

JSON: /api/v1/satellites/44529 · /tle

For live sub-satellite position, see the globe view (requires WebGL).

§ Visibility from observer

Set your observer location to see the next 7 days of passes ≥ 10°. The values pass through the URL so the page stays shareable.

No JS? Fill the form by hand. The geolocation button needs JavaScript.

§ Radio — SatNOGS DB

ModeDescriptionDownlinkUplink
BPSK S-band telemetry 2.262 GHz

1 transmitter · refreshed weekly from db.satnogs.org